745  
ASUS44 KOUN 261510  
RWROK  
 
WEATHER ROUNDUP FOR OKLAHOMA  
NATIONAL WEATHER SERVICE NORMAN OK  
1000 AM CDT THU APR 26 2018  
 
NOTE: "FAIR" INDICATES FEW OR NO CLOUDS BELOW 12,000 FEET WITH NO  
SIGNIFICANT WEATHER AND/OR S TO VISIBILITY
.  
 
OKZ001>007-009>012-014-015-017-261600-  
NORTHWEST OKLAHOMA AND THE PANHANDLE  
 
CITY SKY/WX TMP DP RH WIND PRES REMARKS
 
GAGE SUNNY 56 42 59 SW8 29.99F  
GUYMON SUNNY 52 39 61 NW8 29.96S  
ENID/WOODRING MOSUNNY 55 52 88 CALM 30.05R  

 
 
OKZ016-021>023-033>039-044-045-261600-  
SOUTHWEST OKLAHOMA  
 
CITY SKY/WX TMP DP RH WIND PRES REMARKS
 
LAWTON/REGL CLOUDY 56 46 69 CALM 30.04F  
LAWTON/FT SILL CLOUDY 56 48 73 E3 30.03F  
FREDERICK SUNNY 57 47 69 E6 30.01F  
CLINTON SUNNY 55 44 66 S8 30.02F  
HOBART SUNNY 54 47 77 CALM 30.04S  

 
 
OKZ018>020-024>031-261600-  
CENTRAL OKLAHOMA  
 
CITY SKY/WX TMP DP RH WIND PRES REMARKS
 
OKLAHOMA CITY MOSUNNY 54 42 64 N6 30.04F  
OKC/WILEY POST SUNNY 54 42 64 CALM 30.04F  
OKC/TINKER AFB SUNNY 53 42 66 N5 30.04S  
STILLWATER MOSUNNY 53 43 68 CALM 30.04F  
GUTHRIE SUNNY 51 44 77 CALM 30.04F  

 
 
OKZ008-013-054>072-261600-  
NORTHEAST OKLAHOMA  
 
CITY SKY/WX TMP DP RH WIND PRES REMARKS
 
TULSA CLOUDY 54 46 74 NW8 30.04S  
TULSA/JONES CLOUDY 54 46 74 NW5 30.04S  
PONCA CITY SUNNY 52 44 74 NE5 30.05S  
BARTLESVILLE CLOUDY 52 45 77 VRB3 30.07S  
MUSKOGEE CLOUDY 53 50 89 N12 30.05R  

 
 
OKZ032-040>043-046>053-073>077-261600-  
SOUTH CENTRAL/SOUTHEAST OKLAHOMA  
 
CITY SKY/WX TMP DP RH WIND PRES REMARKS
 
ARDMORE/DWNTWN SUNNY 55 43 62 CALM 30.06S  
MCALESTER CLOUDY 51 47 86 N8 30.04S  

 
 
 
 
CLICK HERE TO GO TO PREVIOUS BULLETINS.

The Nexlab OK Page Main Text Page